FENGYUN 1C DEB

Satellite information

Favourite Embed

Satellite Type and Status

DEBRISIN ORBIT

Key statistics

Satellite FENGYUN 1C DEB at a glance.

Uptime

9556

Days in orbit

Revolutions

≈ 13.4

Per day

Orbit

SSO

Sun Synchronous Orbit

Inclination

98.7

Latest

Satellite identification and parameters

Extended collection of information and parameters for FENGYUN 1C DEB.

Object identification

Identified? True

Debris? True

Object name: FENGYUN 1C DEB

International designator: 1999-025EYP

Object number (NORAD): 43358

Object ID (CCSDS): 43358

Country: PEOPLES REPUBLIC OF CHINA (PRC)

Current information (Y/N): Y

RCS size: SMALL

Orbital parameters

Period: 107.472 minutes

Inclination: 98.6779 deg

SMA: 7487.845 km

Apoapsis: 1384.151 km

Periapsis: 835.269 km

RAAN: 331.1076 deg

Eccentricy: 0.0366515

Argument of periapsis: 240.6769 deg

Mean anomaly: 115.7282 deg

Mean motion: 13.39884924 rev/day

Mean motion (dot): 0.00001465 rev/day2

B* drag term: 0.0018677 1/REarth

Two-line elements (TLE)

Creation date: July 8, 2025, 2:27 a.m.

Reference frame: TEME

Reference center: EARTH

Epoch: July 7, 2025, 10:30 p.m. UTC

TLE line 0: 0 FENGYUN 1C DEB

TLE line 1: 1 43358U 99025EYP 25188.93809500 .00001465 00000-0 18677-2 0 9993

TLE line 2: 2 43358 98.6779 331.1076 0366515 240.6769 115.7282 13.39884924516179

Live tracking on map

Real-time ground track for satellite FENGYUN 1C DEB.

In-orbit conjunctions

There are no conjunctions computed for FENGYUN 1C DEB, at the moment. Check back to stay up to date, as we update our databases every day.

Go to all conjunctions

Associated space launch

Chinese polar orbiting meteorological satellite

FENGYUN 1C DEB was lifted into orbit during the mission ‘Long March 4B | Feng Yun 1C’, on board a Long March 4B space rocket.

The launch took place on May 10, 1999, 1:33 a.m. from Launch Complex 7.

For more information about the launch, click the button.

Launch to space Long March 4B | Feng Yun 1C
Long March 4B | Feng Yun 1C

Agency: N/A

Status: Launch Successful

Launch date: May 10, 1999, 1:33 a.m. UTC

Rocket: Long March 4B

Launch pad: Launch Complex 7

Location: Taiyuan Satellite Launch Center, People's Republic of China

...

Latest news about this satellite

There are no fresh news available about this satellite. Check back as we update our databases every day.


Newsletter sign-up

Weekly statistics, charts and insights to help you stay on top of the space industry.